Regional Weather Roundup
Issued by NWS

Home | Current Version | Previous Version | Graphics & Text | Print | Product List | Glossary On
Versions: 1 2 3 4 5 6 7 8 9 10 11 12 13 14 15 16 17 18 19 20 21 22 23 24 25 26 27 28 29 30 31 32 33 34 35 36 37 38 39 40 41 42 43 44 45 46 47 48 49 50
012
ASUS43 KOAX 180302
RWRNE

WEATHER ROUNDUP FOR NEBRASKA
NATIONAL WEATHER SERVICE OMAHA NE
900 PM CST TUE JAN 17 2017

NOTES: SATELLITE DATA IS BEING USED TO AUGMENT CLOUD COVER ABOVE
       12000 FEET.
       "FAIR" INDICATES FEW OR NO CLOUDS BELOW 12,000 FEET WITH NO
       SIGNIFICANT WEATHER AND/OR OBSTRUCTIONS TO VISIBILITY.

  * THESE STATIONS DO NOT REPORT WEATHER SUCH AS RAIN...SNOW OR FOG.

NEZ001>004-019>022-054>056-180400-
NEBRASKA PANHANDLE

CITY           SKY/WX    TMP DP  RH WIND       PRES   REMARKS
SCOTTSBLUFF    CLOUDY    36  12  37 W10       29.98S WCI  28
ALLIANCE       CLOUDY    24  18  77 W6        29.95S WCI  17
CHADRON        CLOUDY    19  16  88 W6        29.94F WCI  11
KIMBALL        CLOUDY    30  28  92 W10       29.99F WCI  21
SIDNEY         CLOUDY    29  25  85 W8        29.99S WCI  21
$$

NEZ057>060-069>072-079>082-180400-
SOUTHWEST NEBRASKA

CITY           SKY/WX    TMP DP  RH WIND       PRES   REMARKS
NORTH PLATTE   CLEAR     29  24  82 CALM      30.00S
IMPERIAL       CLOUDY    30  27  88 SW6       30.01S WCI  24
LEXINGTON      CLEAR     34  26  75 SW6       30.02S WCI  28
MCCOOK         CLEAR     29  25  85 SW7       30.03R WCI  22
OGALLALA       CLOUDY    30  27  89 W6        29.98F WCI  24
$$

NEZ005>010-023>029-035>040-094-180400-
NORTH CENTRAL NEBRASKA

CITY           SKY/WX    TMP DP  RH WIND       PRES   REMARKS
VALENTINE      CLOUDY    30  17  58 SW8       29.93S WCI  22
AINSWORTH      CLOUDY    34  27  75 SW10      29.94S WCI  26
BROKEN BOW     CLOUDY    27  23  85 CALM      29.99S
O`NEILL        CLOUDY    33  29  83 S10       29.96F WCI  25
ORD            CLOUDY    27  23  85 S8        29.99F WCI  19
THEDFORD       CLOUDY    33  28  81 SW3       29.97S
$$

NEZ041-046>049-061>064-073>077-083>087-180400-
SOUTH CENTRAL NEBRASKA

CITY           SKY/WX    TMP DP  RH WIND       PRES   REMARKS
GRAND ISLAND   CLOUDY    31  30  96 S7        30.04S WCI  24
AURORA         CLEAR     33  32  98 SW5       30.04F WCI  28
HASTINGS       CLEAR     33  30  88 S7        30.06S WCI  27
HEBRON         CLOUDY    30  29  97 CALM      30.09S
HOLDREGE       CLOUDY    33  26  77 SW7       30.04S WCI  26
KEARNEY *      CLOUDY    32  27  80 SW7       30.03F WCI  26
$$

NEZ011>018-030>034-042>045-180400-
NORTHEAST NEBRASKA

CITY           SKY/WX    TMP DP  RH WIND       PRES   REMARKS
NORFOLK        CLOUDY    30  28  92 S6        30.01F WCI  24
ALBION         CLOUDY    32  30  94 SE3       30.01F
BLAIR          CLEAR     29  28  95 S3        30.07R FOG
FREMONT        CLEAR     29  29 100 CALM      30.07S
TEKAMAH        CLOUDY    31  28  89 S8        30.07F FOG     WCI  23
WAYNE          CLOUDY    29  28  97 S10       30.02F WCI  20
$$

NEZ050>053-065>068-078-088>093-180400-
SOUTHEAST NEBRASKA

CITY           SKY/WX    TMP DP  RH WIND       PRES   REMARKS
LINCOLN        CLOUDY    28  27  96 CALM      30.09F FOG
OMAHA EPPLEY   CLEAR     25  21  85 SE8       30.09S FOG     WCI  16
BEATRICE       CLOUDY    29  29  99 S3        30.09F FOG
FALLS CITY     CLEAR     30  29  96 S7        30.13R WCI  23
NEBRASKA CITY  CLOUDY    28  28 100 S5        30.10S WCI  22
PLATTSMOUTH    CLOUDY    28  26  90 S5        30.09S FOG     WCI  23
$$

NEZ044-045-051>053-067-180400-
OMAHA AREA

CITY           SKY/WX    TMP DP  RH WIND       PRES   REMARKS
OMAHA EPPLEY   CLEAR     25  21  85 SE8       30.09S FOG     WCI  16
BLAIR          CLEAR     29  28  95 S3        30.07R FOG
FREMONT        CLEAR     29  29 100 CALM      30.07S
MILLARD        CLOUDY    29  28  95 CALM      30.09S FOG
OFFUTT AFB     CLOUDY    26  26 100 CALM      30.09S FOG
PLATTSMOUTH    CLOUDY    28  26  90 S5        30.09S FOG     WCI  23
WAHOO          FAIR      28  27  96 S5        30.07S WCI  23
$$




USA.gov is the U.S. government's official web portal to all federal, state and local government web resources and services.